DL3TR-13 Weather Reports


time (UTC)temp
C
wind
direction
speed
KPH
gust
KPH
rain 1hr
cm
rain 24hr
cm
rain mn
cm
humidity
%
barometer
mb
20260506145310 9 279 11.3 37.0 0.03 0.13 0.13 87 1006.5
20260506144311 10 252 19.3 37.0 0.03 0.13 0.13 83 1006.1
20260506143311 12 219 12.9 37.0 0.03 0.10 0.10 76 1005.8
20260506142310 16 232 11.3 11.3 0.03 0.10 0.10 76 1004.8
20260506141310 15 234 6.4 9.7 0.03 0.10 0.10 76 1004.7
20260506140310 16 231 3.2 6.4 0.03 0.10 0.10 75 1004.4
20260506135311 15 170 3.2 6.4 0.05 0.10 0.10 73 1004.3
20260506134311 15 196 3.2 8.0 0.05 0.10 0.10 73 1004.4
20260506133310 14 144 1.6 9.7 0.05 0.08 0.08 82 1004.4
20260506132311 13 89 3.2 11.3 0.08 0.08 0.08 84 1004.5
20260506131310 13 94 6.4 4.8 0.08 0.08 0.08 85 1004.5
20260506130310 12 221 1.6 3.2 0.08 0.08 0.08 84 1005.0
20260506125310 12 221 1.6 3.2 0.05 0.05 0.05 84 1005.1
20260506124310 12 221 0.0 8.0 0.05 0.05 0.05 82 1005.0
20260506123310 13 247 3.2 4.8 0.03 0.03 0.03 78 1004.9
20260506122310 14 246 3.2 4.8 0.00 0.00 0.00 71 1004.7
20260506121310 15 328 1.6 6.4 0.00 0.00 0.00 68 1004.4
20260506120310 15 5 1.6 9.7 0.00 0.00 0.00 67 1004.2
20260506115310 15 5 6.4 11.3 0.00 0.00 0.00 67 1004.1
20260506114310 15 348 4.8 14.5 0.00 0.00 0.00 66 1003.9
20260506113310 15 338 3.2 8.0 0.00 0.00 0.00 67 1004.1
20260506112310 15 315 3.2 9.7 0.00 0.00 0.00 66 1004.1
20260506111310 15 5 4.8 8.0 0.00 0.00 0.00 68 1004.6
20260506110310 15 340 3.2 11.3 0.00 0.00 0.00 66 1004.3
20260506105310 15 350 4.8 8.0 0.00 0.00 0.00 66 1004.5
20260506104311 15 346 0.0 12.9 0.00 0.00 0.00 67 1004.6
20260506103310 15 355 3.2 9.7 0.00 0.00 0.00 68 1004.6
20260506102310 15 348 1.6 8.0 0.00 0.00 0.00 69 1004.6
20260506101310 15 346 3.2 11.3 0.00 0.00 0.00 71 1004.7
20260506100310 14 347 6.4 9.7 0.00 0.00 0.00 75 1004.6
20260506095310 13 348 4.8 8.0 0.00 0.00 0.00 75 1004.9
20260506094310 13 355 1.6 11.3 0.00 0.00 0.00 73 1004.7
20260506093310 13 346 4.8 6.4 0.00 0.00 0.00 76 1004.9
20260506092310 13 5 4.8 4.8 0.00 0.00 0.00 76 1005.1
20260506091310 13 350 1.6 8.0 0.00 0.00 0.00 75 1005.1
20260506090310 13 17 4.8 9.7 0.00 0.00 0.00 76 1005.1
20260506085310 12 315 4.8 4.8 0.00 0.00 0.00 78 1005.1
20260506084310 12 315 1.6 6.4 0.00 0.00 0.00 79 1005.1
20260506083310 12 360 0.0 8.0 0.00 0.00 0.00 80 1005.1
20260506082310 12 41 3.2 6.4 0.00 0.00 0.00 79 1005.0
20260506081310 12 28 0.0 8.0 0.00 0.00 0.00 81 1005.0
20260506080310 12 20 4.8 8.0 0.00 0.00 0.00 83 1004.9
20260506073311 11 80 0.0 0.0 0.00 0.00 0.00 88 1005.1
20260506072325 11 80 0.0 4.8 0.00 0.00 0.00 89 1005.1
20260506071310 10 81 1.6 3.2 0.00 0.00 0.00 90 1005.1
20260506070310 10 81 1.6 8.0 0.00 0.00 0.00 90 1004.9
20260506062310 10 101 0.0 3.2 0.00 0.00 0.00 91 1005.4
20260506061310 10 101 1.6 3.2 0.00 0.00 0.00 91 1005.4
20260506060310 9 101 0.0 4.8 0.00 0.00 0.00 91 1005.4
20260506051310 8 101 1.6 4.8 0.00 0.00 0.00 93 1005.6
20260506050310 8 101 0.0 3.2 0.00 0.00 0.00 94 1005.7
20260506044310 8 101 0.0 3.2 0.00 0.00 0.00 94 1005.9
20260506043311 7 101 1.6 3.2 0.00 0.00 0.00 93 1006.0
20260506042310 7 101 0.0 3.2 0.00 0.00 0.00 93 1006.1
20260506041310 7 101 1.6 4.8 0.00 0.00 0.00 93 1006.1
20260506040310 7 101 3.2 3.2 0.00 0.00 0.00 93 1006.3
20260506035310 7 101 1.6 4.8 0.00 0.00 0.00 93 1006.4
20260506034310 7 101 1.6 3.2 0.00 0.00 0.00 93 1006.4
20260506033311 8 101 0.0 3.2 0.00 0.00 0.00 93 1006.5
20260506032310 8 101 1.6 4.8 0.00 0.00 0.00 94 1006.5
20260506031310 8 101 3.2 4.8 0.00 0.00 0.00 94 1006.6
20260506030310 7 107 1.6 3.2 0.00 0.00 0.00 93 1006.8
20260506025310 8 107 0.0 3.2 0.00 0.00 0.00 93 1007.1
20260506024310 8 107 0.0 0.0 0.00 0.00 0.00 94 1007.1
20260506023311 7 107 0.0 0.0 0.00 0.00 0.00 93 1007.1
20260506022310 8 107 0.0 0.0 0.00 0.00 0.00 93 1007.2
20260506021310 8 107 0.0 4.8 0.00 0.00 0.00 93 1007.3
20260506020310 7 107 1.6 1.6 0.00 0.00 0.00 93 1007.3
20260506015310 7 107 0.0 0.0 0.00 0.00 0.00 92 1007.4
20260506014310 8 107 0.0 0.0 0.00 0.00 0.00 93 1007.4
20260506013311 8 107 0.0 3.2 0.00 0.00 0.00 93 1007.6
20260506012310 8 107 0.0 3.2 0.00 0.00 0.00 93 1007.6
20260506011310 8 107 3.2 3.2 0.00 0.00 0.00 93 1007.6
20260506010310 8 107 0.0 4.8 0.00 0.00 0.00 93 1007.6
20260506005310 8 107 3.2 3.2 0.00 0.00 0.00 93 1007.7
20260506004310 7 107 0.0 4.8 0.00 0.00 0.00 93 1007.8
20260506003310 7 107 1.6 4.8 0.00 0.00 0.00 93 1007.8
20260506002310 7 107 1.6 4.8 0.00 0.00 0.00 93 1007.8
20260506001310 8 107 1.6 4.8 0.00 0.00 0.00 93 1007.7
20260506000310 8 107 1.6 4.8 0.00 0.00 0.00 93 1007.9
20260505235310 8 107 1.6 4.8 0.00 0.00 0.00 93 1008.0
20260505234310 8 107 1.6 4.8 0.00 0.00 0.00 93 1008.1
20260505233310 8 107 1.6 3.2 0.00 0.00 0.00 93 1008.1
20260505232310 8 107 1.6 3.2 0.00 0.00 0.00 93 1008.3
20260505231310 8 107 1.6 4.8 0.00 0.00 0.00 93 1008.2
20260505230310 8 107 3.2 4.8 0.00 0.00 0.00 93 1008.3
20260505225310 8 107 1.6 3.2 0.00 0.00 0.00 93 1008.2
20260505224311 8 107 0.0 3.2 0.00 0.00 0.00 92 1008.4
20260505223310 9 107 0.0 1.6 0.00 0.00 0.00 91 1008.2
20260505222310 9 107 0.0 1.6 0.00 0.00 0.00 91 1008.3
20260505221310 10 107 0.0 3.2 0.00 0.00 0.00 91 1008.4
20260505220310 10 107 0.0 3.2 0.00 0.00 0.00 91 1008.3
20260505215310 10 107 1.6 3.2 0.00 0.51 0.51 91 1008.4
20260505214310 10 107 0.0 3.2 0.00 0.51 0.51 91 1008.2
20260505213310 10 107 1.6 3.2 0.00 0.51 0.51 91 1008.3
20260505212310 10 107 0.0 1.6 0.00 0.51 0.51 91 1008.5
20260505211310 10 107 0.0 3.2 0.03 0.51 0.51 91 1008.5
20260505210310 10 107 1.6 4.8 0.05 0.51 0.51 91 1008.4
20260505205310 10 107 1.6 6.4 0.08 0.51 0.51 91 1008.5
20260505204310 10 67 1.6 4.8 0.08 0.51 0.51 91 1008.4
20260505203310 10 165 0.0 3.2 0.08 0.51 0.51 90 1008.4
20260505202310 10 165 0.0 4.8 0.10 0.51 0.51 91 1008.3
20260505201310 10 165 1.6 3.2 0.15 0.51 0.51 91 1008.3
20260505200310 10 165 1.6 4.8 0.18 0.46 0.46 91 1008.7
20260505195310 10 156 3.2 6.4 0.36 0.43 0.43 92 1008.8
20260505194310 10 142 3.2 8.0 0.43 0.43 0.43 92 1008.7
20260505193310 10 180 1.6 11.3 0.43 0.43 0.43 92 1008.8
20260505192311 10 214 3.2 9.7 0.43 0.43 0.43 91 1008.6
20260505191310 10 225 4.8 14.5 0.33 0.33 0.33 90 1008.7
20260505190310 10 220 6.4 16.1 0.28 0.28 0.28 89 1008.4
20260505185310 11 223 9.7 20.9 0.08 0.08 0.08 88 1008.2
20260505184310 12 225 12.9 20.9 0.00 0.00 0.00 88 1008.0
20260505183310 12 217 3.2 6.4 0.00 0.00 0.00 90 1007.2
20260505182310 12 240 1.6 4.8 0.00 0.00 0.00 90 1007.1
20260505181310 12 240 3.2 4.8 0.00 0.00 0.00 89 1006.9
20260505180310 12 240 3.2 4.8 0.00 0.00 0.00 89 1006.9
20260505175310 12 240 1.6 3.2 0.00 0.00 0.00 88 1006.6
20260505174310 12 240 1.6 6.4 0.00 0.00 0.00 86 1006.5
20260505173310 13 239 3.2 12.9 0.00 0.00 0.00 84 1006.5
20260505172310 13 240 6.4 9.7 0.00 0.00 0.00 83 1006.4
20260505171310 14 258 3.2 8.0 0.00 0.00 0.00 82 1006.2
20260505170310 15 245 4.8 9.7 0.00 0.00 0.00 81 1006.0
20260505165309 15 238 6.4 11.3 0.00 0.00 0.00 80 1005.9
20260505164310 15 232 6.4 11.3 0.00 0.00 0.00 82 1005.8
20260505163310 15 238 3.2 6.4 0.00 0.00 0.00 81 1005.6
20260505162309 15 265 3.2 4.8 0.00 0.00 0.00 80 1005.6
20260505161310 15 265 3.2 6.4 0.00 0.00 0.00 79 1005.5
20260505160310 15 198 3.2 4.8 0.00 0.00 0.00 76 1005.5
20260505153309 15 304 8.0 16.1 0.00 0.00 0.00 76 1005.8
20260505152310 15 304 6.4 11.3 0.00 0.00 0.00 74 1005.7
20260505151310 16 243 4.8 11.3 0.00 0.00 0.00 70 1005.8
20260505150310 17 229 3.2 12.9 0.00 0.00 0.00 64 1005.9